User: anonymous   Login
Location: El Bakhil
(32.7726°N, 5.5387°W)
Time: 00:21:25
(UTC+00:00)
Language:

Cosmos 2322 Rocket - Orbit

View from above orbital plane
View from above orbital plane
View from above satellite
View from above satellite

Ground track
Ground track

The orbit data is extracted from the following two-line orbital elements,

1 23705U 95058B   21136.51573532 -.00000269  00000-0 -11382-3 0  9995
2 23705  71.0227 270.1363 0014910 277.9566  81.9865 14.15150981319091
Epoch (UTC): 16 May 2021 12:22:39
Eccentricity: 0.0014910
inclination: 71.0227°
perigee height: 831 km
apogee height: 852 km
right ascension of ascending node: 270.1363°
argument of perigee: 277.9566°
revolutions per day: 14.15150981
mean anomaly at epoch: 81.9865°
orbit number at epoch: 31909

The dashed part of the orbit path shows where the satellite is in the earth's shadow,  

DLR